Location: Central Falls
(41.8900°N, 71.3929°W)
Time: 02:26:19
(UTC+00:00)

Vanguard 2 Rocket - Pass Details

Date: 12 December 2023
Orbit: 555 x 3309 km, 32.9° (Epoch: 01 March)

Event Time Altitude Azimuth Distance (km) Brightness Sun altitude
Rises 21:15:06 0° 273° (W) 6,413 12.3 -0.9°
Reaches altitude 10° 21:19:02 10° 269° (W) 5,665 12.1 -1.5°
Maximum altitude 21:36:55 56° 199° (SSW) 3,726 10.3 -4.5°
Drops below altitude 10° 21:55:15 10° 128° (SE) 5,776 10.7 -7.5°
Sets 21:59:20 0° 124° (SE) 6,538 10.9 -8.2°
